Regional Weather Roundup
Issued by NWS

Home | Current Version | Previous Version | Graphics & Text | Print | Product List | Glossary On
Versions: 1 2 3 4 5 6 7 8 9 10 11 12 13 14 15 16 17 18 19 20 21 22 23 24 25 26 27 28 29 30 31 32 33 34 35 36 37 38 39 40 41 42 43 44 45 46 47 48 49 50
000
ASUS45 KBOI 280810
RWRID

IDAHO REGIONAL WEATHER ROUNDUP
NATIONAL WEATHER SERVICE BOISE ID
200 AM MDT WED SEP 28 2016

NOTE: "FAIR" INDICATES FEW OR NO CLOUDS BELOW 12000 FEET
WITH NO SIGNIFICANT WEATHER AND/OR OBSTRUCTIONS TO VISIBILITY

IDZ012-014-280900-
SOUTHWEST IDAHO


CITY           SKY/WX    TMP DP  RH WIND       PRES   REMARKS
BOISE          CLEAR     65  40  39 SE10      30.02R
CALDWELL       CLEAR     53  46  77 E5        30.01R
MOUNTAIN HOME  CLEAR     56  42  58 N3        30.03R
$$

IDZ016-017-280900-
SOUTHCENTRAL IDAHO


CITY           SKY/WX    TMP DP  RH WIND       PRES   REMARKS
BURLEY         CLEAR     48  46  93 NW3       30.10S
JEROME         CLEAR     58  46  64 NE13      30.10S
TWIN FALLS     CLEAR     54  40  59 CALM      30.10S
$$

IDZ019>023-280900-
SOUTHEAST IDAHO


CITY           SKY/WX    TMP DP  RH WIND       PRES   REMARKS
IDAHO FALLS    CLEAR     47  41  80 N7        30.19S
POCATELLO      CLEAR     48  44  86 CALM      30.17R
REXBURG        CLEAR     46  42  86 NE5       30.20S
$$

IDZ006-010-011-018-031-032-280900-
CENTRAL IDAHO MOUNTAINS


CITY           SKY/WX    TMP DP  RH WIND       PRES   REMARKS
MCCALL         CLEAR     48  38  68 CALM      30.16S
HAILEY         CLEAR     52  39  62 NW10      30.23S
STANLEY          N/A     40  33  76 CALM      30.29S
SALMON         CLEAR     46  39  76 CALM      30.16R
CHALLIS        CLEAR     51  34  52 CALM      30.20S
$$

IDZ002-004-006-007-026-280900-
NORTHERN IDAHO


CITY           SKY/WX    TMP DP  RH WIND       PRES   REMARKS
LEWISTON       CLEAR     63  45  51 SE3       30.00S
LOWELL           N/A     54  51  90 CALM      30.07S
COEUR D`ALENE  CLEAR     57  46  66 E6        30.07R
MULLAN PASS    CLEAR     56  42  59 S3        30.21S
$$



USA.gov is the U.S. government's official web portal to all federal, state and local government web resources and services.